TimeMST,TemperatureF,Dew PointF,Humidity,Sea Level PressureIn,VisibilityMPH,Wind Direction,Wind SpeedMPH,Gust SpeedMPH,PrecipitationIn,Events,Conditions,WindDirDegrees,DateUTC
12:53 AM,9.0,1.9,73,30.10,10.0,NNW,4.6,-,N/A,,Clear,340,2013-01-30 07:53:00
1:53 AM,5.0,-0.0,80,30.09,10.0,NNE,5.8,-,N/A,,Clear,20,2013-01-30 08:53:00
2:53 AM,6.1,1.0,80,30.06,10.0,Calm,Calm,-,N/A,,Clear,0,2013-01-30 09:53:00
3:53 AM,5.0,1.0,84,30.05,10.0,Calm,Calm,-,N/A,,Clear,0,2013-01-30 10:53:00
4:53 AM,3.9,-0.0,84,30.04,10.0,Calm,Calm,-,N/A,,Clear,0,2013-01-30 11:53:00
5:53 AM,1.9,-0.9,88,30.03,10.0,Calm,Calm,-,N/A,,Clear,0,2013-01-30 12:53:00
6:53 AM,5.0,1.9,87,29.99,10.0,Calm,Calm,-,N/A,,Mostly Cloudy,0,2013-01-30 13:53:00
7:53 AM,7.0,3.0,84,29.99,8.0,NE,3.5,-,N/A,,Overcast,50,2013-01-30 14:53:00
8:53 AM,10.0,5.0,80,29.99,8.0,Calm,Calm,-,N/A,,Overcast,0,2013-01-30 15:53:00
9:53 AM,14.0,8.1,77,29.99,10.0,WNW,4.6,-,N/A,,Clear,300,2013-01-30 16:53:00
10:53 AM,19.9,12.0,71,29.98,10.0,WNW,5.8,-,N/A,,Clear,290,2013-01-30 17:53:00
11:53 AM,25.0,14.0,63,29.95,10.0,WSW,9.2,-,N/A,,Mostly Cloudy,250,2013-01-30 18:53:00
12:53 PM,32.0,17.1,54,29.90,10.0,WNW,12.7,-,N/A,,Clear,300,2013-01-30 19:53:00
1:53 PM,36.0,19.0,50,29.88,10.0,WNW,10.4,-,N/A,,Mostly Cloudy,300,2013-01-30 20:53:00
2:53 PM,37.0,18.0,46,29.88,10.0,NW,20.7,29.9,N/A,,Partly Cloudy,320,2013-01-30 21:53:00
3:53 PM,35.1,17.1,48,29.90,10.0,NW,15.0,24.2,N/A,,Partly Cloudy,310,2013-01-30 22:53:00
4:53 PM,34.0,18.0,52,29.92,10.0,NW,13.8,-,N/A,,Scattered Clouds,310,2013-01-30 23:53:00
5:53 PM,32.0,19.0,59,29.94,10.0,NNW,9.2,-,N/A,,Clear,330,2013-01-31 00:53:00
6:53 PM,28.0,18.0,66,29.94,10.0,North,10.4,-,N/A,,Mostly Cloudy,360,2013-01-31 01:53:00
7:53 PM,28.9,18.0,64,29.93,10.0,NNW,6.9,-,N/A,,Overcast,330,2013-01-31 02:53:00
8:53 PM,28.0,18.0,66,29.95,10.0,Calm,Calm,-,N/A,,Mostly Cloudy,0,2013-01-31 03:53:00
9:53 PM,28.0,19.9,72,29.97,10.0,North,20.7,26.5,N/A,,Overcast,10,2013-01-31 04:53:00
10:53 PM,27.0,21.0,78,29.97,10.0,North,10.4,19.6,N/A,,Mostly Cloudy,350,2013-01-31 05:53:00
11:53 PM,26.1,19.9,78,29.98,10.0,NW,6.9,-,N/A,,Overcast,310,2013-01-31 06:53:00